Youngstown, OH

1:46 AM EDT on May 21, 2018 (GMT -0400)
Youngstown-Warren Regional

Weather History for KYNG - February, 2013

Change the Weather History Date:

Wednesday, February 20, 2013

  Actual Average Record
Temperature  
Mean Temperature 19 °F 29 °F  
Max Temperature 21 °F 37 °F 73 °F (2018)
Min Temperature 16 °F 21 °F -16 °F (2015)
Degree Days  
Heating Degree Days 46 36  
Month to date heating degree days 800 749  
Since 1 July heating degree days 4160 4372  
Cooling Degree Days 0 0  
Month to date cooling degree days 0 0  
Year to date cooling degree days 0 0  
Moisture  
Dew Point 10 °F    
Average Humidity 71    
Maximum Humidity 80    
Minimum Humidity 62    
Precipitation  
Precipitation 0.14 in 0.07 in 0.87 in (2011)
Month to date precipitation 1.28 1.49  
Year to date precipitation 3.09 4.04  
Snow  
Snow 3.00 in 0.40 in - ()
Month to date snowfall 17.8 9.0  
Since 1 July snowfall 57.9 45.0  
Snow Depth 1.00 in    
Sea Level Pressure  
Sea Level Pressure 30.09 in    
Wind  
Wind Speed 14 mph (West)    
Max Wind Speed 22 mph    
Max Gust Speed 30 mph    
Visibility 4 miles    
Events Snow    
T = Trace of Precipitation, MM = Missing Value Source: NWS Daily Summary

Daily Weather History Graph

Daily Weather History Graph

Search for Another Location

Airport or City:

Astronomy

Feb. 20, 2013 Rise Set
Actual Time 7:10 AM EST 6:03 PM EST
Civil Twilight 6:42 AM EST 6:31 PM EST
Nautical Twilight 6:10 AM EST 7:03 PM EST
Astronomical Twilight 5:38 AM EST 7:35 PM EST
Moon 1:21 PM EST (2/20) 3:31 AM EST (2/20)
Length of Visible Light 11h 49m
Length of Day
10h 52m
Waxing Gibbous, 76% of the Moon is Illuminated
Feb 20
Waxing Gibbous
Feb 25
Full
Mar 4
Last Quarter
Mar 11
New
Mar 19
First Quarter

Hourly Weather History & Observations

Time (EST) Temp. Windchill Dew Point Humidity Pressure Visibility Wind Dir Wind Speed Gust Speed Precip Events Conditions
12:51 AM 17.6 °F 5.0 °F 10.4 °F 73% 29.96 in 3.0 mi West 11.5 mph 20.7 mph N/A Snow Light Snow
1:51 AM 17.1 °F 2.0 °F 9.0 °F 71% 29.98 in 3.0 mi WSW 16.1 mph 21.9 mph 0.00 in Snow Light Snow
2:51 AM 16.0 °F 1.7 °F 9.0 °F 74% 29.98 in 5.0 mi WSW 13.8 mph - 0.00 in Snow Light Snow
3:51 AM 15.8 °F -0.2 °F 8.6 °F 73% 29.99 in 9.0 mi WSW 17.3 mph 23.0 mph N/A Snow Light Snow
4:06 AM 15.8 °F -0.2 °F 8.6 °F 73% 29.93 in 8.0 mi WSW 17.3 mph - 0.00 in Snow Light Snow
4:51 AM 16.0 °F 1.1 °F 8.1 °F 71% 30.01 in 7.0 mi WSW 15.0 mph 23.0 mph 0.00 in Snow Light Snow
5:51 AM 17.1 °F 2.0 °F 9.0 °F 71% 30.01 in 8.0 mi WSW 16.1 mph - 0.00 in Snow Light Snow
6:51 AM 17.6 °F 3.2 °F 8.6 °F 68% 30.03 in 8.0 mi WSW 15.0 mph 24.2 mph N/A Snow Light Snow
7:35 AM 17.6 °F 2.7 °F 8.6 °F 68% 29.98 in 7.0 mi WSW 16.1 mph - 0.00 in Snow Light Snow
7:51 AM 17.1 °F 1.0 °F 9.0 °F 71% 30.05 in 7.0 mi WSW 18.4 mph 25.3 mph 0.00 in Snow Light Snow
8:28 AM 17.6 °F 2.7 °F 8.6 °F 68% 29.99 in 2.5 mi West 16.1 mph - 0.00 in Snow Light Snow
8:41 AM 17.6 °F 2.7 °F 10.4 °F 73% 29.99 in 1.5 mi WSW 16.1 mph 27.6 mph 0.00 in Snow Light Snow
8:51 AM 17.1 °F 1.5 °F 10.0 °F 74% 30.05 in 1.0 mi West 17.3 mph 25.3 mph 0.00 in Snow Light Snow
9:19 AM 17.6 °F 2.2 °F 10.4 °F 73% 29.99 in 0.8 mi West 17.3 mph - 0.00 in Snow Light Snow
9:51 AM 18.0 °F 2.2 °F 10.9 °F 74% 30.06 in 0.8 mi West 18.4 mph 25.3 mph N/A Snow Light Snow
10:19 AM 17.6 °F 2.7 °F 12.2 °F 79% 30.01 in 1.0 mi West 16.1 mph - 0.00 in Snow Light Snow
10:27 AM 17.6 °F 3.7 °F 12.2 °F 79% 30.01 in 0.5 mi West 13.8 mph 26.5 mph 0.00 in Snow Snow
10:51 AM 19.0 °F 5.0 °F 10.9 °F 71% 30.08 in 3.0 mi West 15.0 mph 24.2 mph 0.00 in Snow Light Snow
10:58 AM 19.4 °F 5.0 °F 12.2 °F 74% 30.03 in 0.5 mi West 16.1 mph 27.6 mph 0.00 in Snow Snow
11:51 AM 19.0 °F 3.6 °F 10.9 °F 71% 30.11 in 0.5 mi West 18.4 mph 26.5 mph 0.00 in Snow Snow
12:25 PM 19.4 °F 6.0 °F 12.2 °F 74% 30.05 in 1.0 mi West 13.8 mph 19.6 mph 0.00 in Snow Light Snow
12:40 PM 19.4 °F 4.5 °F 10.4 °F 68% 30.05 in 0.8 mi West 17.3 mph - 0.00 in Snow Light Snow
12:51 PM 19.0 °F 6.1 °F 12.9 °F 77% 30.12 in 0.5 mi WNW 12.7 mph 19.6 mph N/A Snow Snow
1:14 PM 17.6 °F 3.7 °F 10.4 °F 73% 30.06 in 5.0 mi West 13.8 mph 24.2 mph 0.01 in Snow Light Snow
1:33 PM 19.4 °F 5.0 °F 10.4 °F 68% 30.06 in 0.8 mi West 16.1 mph - 0.01 in Snow Light Snow
1:44 PM 19.4 °F 5.5 °F 12.2 °F 74% 30.06 in 1.0 mi West 15.0 mph - 0.01 in Snow Light Snow
1:51 PM 19.9 °F 4.8 °F 12.0 °F 71% 30.13 in 1.8 mi West 18.4 mph 24.2 mph 0.01 in Snow Light Snow
1:59 PM 19.4 °F 6.0 °F 10.4 °F 68% 30.07 in 0.5 mi WNW 13.8 mph 24.2 mph 0.00 in Snow Snow
2:14 PM 19.4 °F 7.2 °F 12.2 °F 74% 30.07 in 4.0 mi WNW 11.5 mph 19.6 mph 0.00 in Snow Light Snow
2:42 PM 19.4 °F 4.1 °F 10.4 °F 68% 30.07 in 0.8 mi WNW 18.4 mph 25.3 mph 0.00 in Snow Light Snow
2:51 PM 19.0 °F 4.5 °F 10.9 °F 71% 30.14 in 4.0 mi West 16.1 mph 25.3 mph 0.00 in Snow Light Snow
3:51 PM 19.0 °F 5.0 °F 10.0 °F 68% 30.16 in 3.0 mi WNW 15.0 mph 21.9 mph N/A Snow Light Snow
3:55 PM 19.4 °F 7.9 °F 10.4 °F 68% 30.10 in 2.0 mi WNW 10.4 mph 21.9 mph 0.00 in Snow Light Snow
4:10 PM 19.4 °F 6.6 °F 10.4 °F 68% 30.11 in 10.0 mi West 12.7 mph 21.9 mph 0.00 in Snow Light Snow
4:11 PM 19.4 °F 6.6 °F 10.4 °F 68% 30.11 in 10.0 mi West 12.7 mph 21.9 mph N/A Snow Light Snow
4:36 PM 19.4 °F 6.6 °F 10.4 °F 68% 30.12 in 9.0 mi West 12.7 mph 18.4 mph 0.00 in   Mostly Cloudy
4:51 PM 19.0 °F 6.1 °F 10.9 °F 71% 30.19 in 9.0 mi West 12.7 mph 23.0 mph 0.00 in Snow Light Snow
5:29 PM 19.4 °F 6.0 °F 10.4 °F 68% 30.15 in 3.0 mi WNW 13.8 mph 18.4 mph 0.00 in Snow Light Snow
5:50 PM 19.0 °F 6.1 °F 9.0 °F 65% 30.20 in 9.0 mi West 12.7 mph - 0.00 in Snow Light Snow
5:51 PM 19.0 °F 6.1 °F 9.0 °F 65% 30.20 in 9.0 mi West 12.7 mph - 0.00 in Snow Light Snow
6:51 PM 19.0 °F 6.8 °F 8.1 °F 62% 30.20 in 10.0 mi West 11.5 mph - N/A   Overcast
7:51 PM 19.0 °F 8.2 °F 7.0 °F 59% 30.21 in 9.0 mi West 9.2 mph - 0.00 in Snow Light Snow
8:51 PM 19.0 °F 6.8 °F 10.0 °F 68% 30.21 in 4.0 mi West 11.5 mph - 0.00 in Snow Light Snow
9:51 PM 19.0 °F 7.5 °F 10.9 °F 71% 30.22 in 8.0 mi West 10.4 mph - 0.00 in Snow Light Snow
10:31 PM 18.0 °F 8.7 °F 12.0 °F 78% 30.22 in 3.0 mi WSW 6.9 mph - 0.00 in Snow Light Snow
10:51 PM 18.0 °F 8.7 °F 12.0 °F 78% 30.22 in 3.0 mi WSW 6.9 mph - 0.00 in Snow Light Snow
11:51 PM 18.0 °F 8.7 °F 12.9 °F 81% 30.20 in 4.0 mi West 6.9 mph - 0.00 in Snow Light Snow